#timestamp,LO_Frequency,Hit,StdDev 
1636851615.8,286047000.2,N
1636851635.6,286047002.3,N
1636851655.5,286047002.8,N
1636851675.3,286047002.5,N
1636851695.1,286047002.6,N
1636851715.9,286046999.8,N
1636851735.7,286047002.7,N
1636851755.6,286047002.4,N
1636851775.4,286047002.7,N
1636851795.2,286047002.0,N
1636851815.1,286047002.2,N
1636851816.0,286047002.2,N
1636851835.8,286047002.1,N
1636851855.6,286047001.9,N
1636851875.5,286047001.8,N
1636851895.3,286047004.0,Y
1636851915.2,286046999.9,P
1636851935.9,286047000.0,N
1636851955.7,286047002.6,N
1636851975.6,286047002.7,N
1636851995.4,286047002.6,N
1636852015.2,286047002.6,N
1636852035.1,286047002.5,N
1636852036.0,286047002.5,N
1636852055.8,286047002.5,N
1636852075.7,286047002.4,N
1636852095.5,286047001.5,N
1636852115.3,286047001.3,N
1636852135.2,286047001.5,N
1636852155.0,286047001.8,N
1636852155.9,286047001.8,N
1636852175.8,286047001.4,N
1636852195.6,286047001.4,N
1636852215.4,286047001.3,N
1636852235.3,286047004.1,Y
1636852255.1,286046999.9,P
1636852275.8,286047002.4,N
1636852295.7,286046999.7,N
1636852315.5,286047002.8,N
1636852335.4,286047002.4,N
1636852355.2,286047002.4,N
1636852375.0,286047002.6,N
1636852375.9,286047002.6,N
1636852395.8,286047002.1,N
1636852415.6,286047002.1,N
1636852435.4,286047001.6,N
1636852455.3,286047002.2,N
1636852475.1,286047001.5,N
1636852495.9,286047001.7,N
1636852515.7,286047001.4,N
1636852535.5,286047001.4,N
1636852555.4,286047001.3,N
1636852575.2,286047004.4,Y
1636852595.1,286047002.4,P
1636852596.0,286047002.4,P
1636852615.8,286047002.3,P
1636852635.6,286047002.3,Y
1636852655.5,286046998.3,P
1636852675.3,286047001.2,N
1636852695.2,286047001.1,N
1636852715.9,286047000.8,N
1636852735.7,286047000.7,N
1636852755.6,286046998.1,N
1636852775.4,286047000.5,N
1636852795.2,286047000.4,N
1636852815.1,286046999.9,N
1636852816.0,286046999.9,N
1636852835.8,286047000.0,N
1636852855.7,286047000.6,N
1636852875.5,286047000.2,N
1636852895.3,286047000.0,N
1636852915.2,286047000.5,N
1636852935.0,286046999.9,N
1636852935.9,286046999.9,N
1636852955.8,286046999.9,N
1636852975.6,286047000.4,N
1636852995.4,286047002.8,Y
1636853015.3,286047000.5,P
1636853035.1,286047000.9,P
1636853055.8,286047000.9,P
1636853075.7,286046999.7,N
1636853095.5,286046999.8,N
1636853115.4,286046999.9,N
1636853135.2,286046999.7,N
1636853155.0,286046999.7,N
1636853155.9,286046999.7,N
1636853175.8,286047000.2,N
1636853195.6,286047000.0,N
1636853215.4,286046999.7,N
1636853235.3,286047002.4,Y
1636853255.1,286047002.7,P
1636853275.9,286047002.4,N
1636853295.7,286047000.1,N
1636853315.5,286047002.6,N
1636853335.4,286047002.2,N
1636853355.2,286047001.9,N
1636853375.0,286047002.1,N
1636853375.9,286047002.1,N
1636853395.8,286047002.4,N
1636853415.6,286047001.6,N
1636853435.5,286047001.7,N
1636853455.3,286047001.4,N
1636853475.1,286047001.7,N
1636853495.9,286047001.9,N
1636853515.7,286047004.1,Y
1636853535.5,286046999.7,P
1636853555.4,286047002.8,N
1636853575.2,286047002.8,N
1636853595.1,286047002.4,N
1636853596.0,286047002.4,N
1636853615.8,286047002.3,N
1636853635.6,286047002.3,N
1636853655.5,286047002.2,N
1636853675.3,286047002.0,N
1636853695.1,286047001.9,N
1636853715.9,286047002.2,N
1636853735.7,286047001.5,N
1636853755.6,286047001.8,N
1636853775.4,286047001.6,N
1636853795.2,286047001.5,N
1636853815.1,286047002.5,Y
1636853816.0,286047002.5,P
1636853835.8,286047000.6,N
1636853855.6,286046999.7,N
1636853875.5,286046999.8,N
1636853895.3,286047000.0,N
1636853915.2,286047000.3,N
1636853935.9,286047002.8,N
1636853955.7,286047000.3,N
1636853975.6,286047000.4,N
1636853995.4,286047000.4,N
1636854015.2,286047000.6,N
1636854035.1,286047000.0,N
1636854036.0,286047000.0,N
1636854055.8,286046999.9,N
1636854075.7,286047000.0,N
1636854095.5,286047000.6,N
1636854115.3,286046999.8,N
1636854135.2,286046999.7,N
1636854155.9,286047002.4,N
1636854175.7,286047002.6,N
1636854195.6,286047002.7,N
1636854215.4,286047002.6,N
1636854235.2,286047002.2,N
1636854255.1,286047002.4,N
1636854256.0,286047002.4,N
1636854275.8,286047002.0,N
1636854295.7,286047002.7,N
1636854315.5,286047002.5,N
1636854335.3,286047002.5,N
1636854355.2,286046999.8,N
1636854375.0,286047002.6,N
1636854375.9,286047002.6,N
1636854395.7,286047002.8,N
1636854415.6,286047002.0,N
1636854435.4,286047002.1,N
1636854455.3,286047001.9,N
1636854475.1,286047002.6,N
1636854476.0,286047002.6,N
1636854495.8,286047001.6,N
1636854515.7,286047002.0,N
1636854535.5,286047002.0,N
1636854555.3,286047002.8,N
1636854575.2,286047002.3,N
1636854595.0,286047002.3,N
1636854595.9,286047002.3,N
1636854615.8,286047001.6,N
1636854635.6,286047002.6,Y
1636854655.4,286047001.1,P
1636854675.3,286047000.3,N
1636854695.1,286047001.0,N
1636854715.9,286047001.0,N
1636854735.7,286046998.1,Y
1636854755.5,286046999.4,P
1636854775.4,286046998.7,N
1636854795.2,286046998.2,N
1636854815.0,286046998.8,N
1636854815.9,286046998.8,N
1636854835.8,286046998.4,N
1636854855.6,286046998.3,N
1636854875.5,286046998.6,N
1636854895.3,286046998.5,N
1636854915.1,286046998.3,N
1636854935.9,286047001.2,N
1636854955.7,286046998.3,N
1636854975.5,286046998.3,N
1636854995.4,286046998.3,N
1636855015.2,286046999.3,N
1636855035.1,286046998.6,N
1636855036.0,286046998.6,N
1636855055.8,286046998.5,N
1636855075.6,286046998.6,N
1636855095.5,286047000.8,N
1636855115.3,286047000.8,N
1636855135.1,286047000.8,N
1636855155.9,286047000.7,N
1636855175.7,286047000.9,N
1636855195.6,286047001.1,N
